Year,Month,Day,Hour,Minute,Value (Times are PST for temperature in C)
2006,07,22,00,11,13.20
2006,07,22,00,12,13.20
2006,07,22,00,15,13.20
2006,07,22,00,16,13.20
2006,07,22,00,17,13.20
2006,07,22,00,18,13.20
2006,07,22,00,19,13.20
2006,07,22,00,20,13.20
2006,07,22,00,21,13.20
2006,07,22,00,22,12.90
2006,07,22,00,23,12.90
2006,07,22,00,24,12.90
2006,07,22,00,25,12.90
2006,07,22,00,26,12.90
2006,07,22,00,27,12.90
2006,07,22,00,28,12.90
2006,07,22,00,29,12.90
2006,07,22,00,30,12.90
2006,07,22,00,31,12.90
2006,07,22,00,32,12.90
2006,07,22,00,33,12.90
2006,07,22,00,34,12.90
2006,07,22,00,35,12.90
2006,07,22,00,36,12.90
2006,07,22,00,37,12.90
2006,07,22,00,38,12.80
2006,07,22,00,39,12.80
2006,07,22,00,40,12.80
2006,07,22,00,41,12.80
2006,07,22,00,42,12.80
2006,07,22,00,43,12.80
2006,07,22,00,44,12.80
2006,07,22,00,45,12.80
2006,07,22,00,46,12.80
2006,07,22,00,47,12.80
2006,07,22,00,48,12.80
2006,07,22,00,49,12.80
2006,07,22,00,50,12.70
2006,07,22,00,51,12.70
2006,07,22,00,52,12.70
2006,07,22,00,53,12.70
2006,07,22,00,54,12.70
2006,07,22,00,55,12.70
2006,07,22,00,56,12.70
2006,07,22,00,57,12.70
2006,07,22,00,58,12.70
2006,07,22,00,59,12.70
2006,07,22,01,00,12.70
2006,07,22,01,01,12.70
2006,07,22,01,02,12.80
2006,07,22,01,03,12.80
2006,07,22,01,05,12.80
2006,07,22,01,06,12.80
2006,07,22,01,07,12.80
2006,07,22,01,08,12.80
2006,07,22,01,09,12.80
2006,07,22,01,10,12.80
2006,07,22,01,11,12.80
2006,07,22,01,12,12.80
2006,07,22,01,13,12.80
2006,07,22,01,14,12.60
2006,07,22,01,15,12.60
2006,07,22,01,16,12.60
2006,07,22,01,17,12.60
2006,07,22,01,18,12.60
2006,07,22,01,19,12.60
2006,07,22,01,20,12.60
2006,07,22,01,21,12.60
2006,07,22,01,22,12.60
2006,07,22,01,23,12.60
2006,07,22,01,24,12.40
2006,07,22,01,25,12.40
2006,07,22,01,26,12.40
2006,07,22,01,27,12.40
2006,07,22,01,28,12.40
2006,07,22,01,29,12.40
2006,07,22,01,30,12.40
2006,07,22,01,31,12.40
2006,07,22,01,32,12.40
2006,07,22,01,33,12.40
2006,07,22,01,34,12.40
2006,07,22,01,35,12.40
2006,07,22,01,36,12.40
2006,07,22,01,37,12.40
2006,07,22,01,38,12.40
2006,07,22,01,39,12.40
2006,07,22,01,40,12.40
2006,07,22,01,41,12.60
2006,07,22,01,42,12.60
2006,07,22,01,43,12.60
2006,07,22,01,44,12.60
2006,07,22,01,45,12.60
2006,07,22,01,46,12.60
2006,07,22,01,47,12.60
2006,07,22,01,48,12.60
2006,07,22,01,49,12.60
2006,07,22,01,50,12.60
2006,07,22,01,51,12.60
2006,07,22,01,52,12.60
2006,07,22,01,53,12.60
2006,07,22,01,54,12.60
2006,07,22,01,55,12.60
2006,07,22,01,56,12.60
2006,07,22,01,57,12.60
2006,07,22,01,58,12.60
2006,07,22,01,59,12.60
2006,07,22,02,00,12.60
2006,07,22,02,01,12.60
2006,07,22,02,02,12.60
2006,07,22,02,03,12.60
2006,07,22,02,04,12.60
2006,07,22,02,05,12.40
2006,07,22,02,06,12.40
2006,07,22,02,07,12.40
2006,07,22,02,08,12.40
2006,07,22,02,09,12.40
2006,07,22,02,10,12.40
2006,07,22,02,11,12.40
2006,07,22,02,12,12.40
2006,07,22,02,13,12.40
2006,07,22,02,14,12.40
2006,07,22,02,15,12.40
2006,07,22,02,16,12.40
2006,07,22,02,17,12.40
2006,07,22,02,18,12.40
2006,07,22,02,19,12.40
2006,07,22,02,20,12.40
2006,07,22,02,21,12.40
2006,07,22,02,22,12.40
2006,07,22,02,23,12.40
2006,07,22,02,24,12.40
2006,07,22,02,25,12.40
2006,07,22,02,26,12.40
2006,07,22,02,28,12.40
2006,07,22,02,29,12.40
2006,07,22,02,30,12.40
2006,07,22,02,31,12.40
2006,07,22,02,32,12.40
2006,07,22,02,33,12.40
2006,07,22,02,35,12.40
2006,07,22,02,36,12.40
2006,07,22,02,37,12.40
2006,07,22,02,38,12.40
2006,07,22,02,39,12.40
2006,07,22,02,40,12.40
2006,07,22,02,41,12.40
2006,07,22,02,42,12.40
2006,07,22,02,43,12.40
2006,07,22,02,44,12.40
2006,07,22,02,45,12.40
2006,07,22,02,46,12.40
2006,07,22,02,47,12.40
2006,07,22,02,48,12.40
2006,07,22,02,49,12.40
2006,07,22,02,50,12.40
2006,07,22,02,51,12.40
2006,07,22,02,52,12.40
2006,07,22,02,53,12.40
2006,07,22,02,54,12.40
2006,07,22,02,55,12.40
2006,07,22,02,56,12.40
2006,07,22,02,57,12.40
2006,07,22,02,58,12.40
2006,07,22,02,59,12.40
2006,07,22,03,00,12.40
2006,07,22,03,01,12.40
2006,07,22,03,02,12.40
2006,07,22,03,03,12.40
2006,07,22,03,04,12.40
2006,07,22,03,05,12.40
2006,07,22,03,06,12.40
2006,07,22,03,07,12.40
2006,07,22,03,08,12.30
2006,07,22,03,09,12.30
2006,07,22,03,10,12.30
2006,07,22,03,11,12.30
2006,07,22,03,12,12.30
2006,07,22,03,13,12.30
2006,07,22,03,14,12.30
2006,07,22,03,15,12.30
2006,07,22,03,16,12.30
2006,07,22,03,17,12.30
2006,07,22,03,18,12.30
2006,07,22,03,19,12.30
2006,07,22,03,20,12.30
2006,07,22,03,21,12.30
2006,07,22,03,22,12.30
2006,07,22,03,23,12.30
2006,07,22,03,24,12.30
2006,07,22,03,25,12.30
2006,07,22,03,26,12.30
2006,07,22,03,27,12.30
2006,07,22,03,28,12.30
2006,07,22,03,29,12.30
2006,07,22,03,30,12.10
2006,07,22,03,31,12.10
2006,07,22,03,32,12.10
2006,07,22,03,33,12.10
2006,07,22,03,34,12.10
2006,07,22,03,35,12.10
2006,07,22,03,36,12.10
2006,07,22,03,37,12.10
2006,07,22,03,38,12.10
2006,07,22,03,39,12.10
2006,07,22,03,40,12.10
2006,07,22,03,41,12.10
2006,07,22,03,42,12.10
2006,07,22,03,43,12.10
2006,07,22,03,44,12.10
2006,07,22,03,45,12.10
2006,07,22,03,46,12.10
2006,07,22,03,47,12.30
2006,07,22,03,48,12.30
2006,07,22,03,49,12.30
2006,07,22,03,50,12.30
2006,07,22,03,51,12.30
2006,07,22,03,52,12.30
2006,07,22,03,53,12.30
2006,07,22,03,54,12.30
2006,07,22,03,55,12.30
2006,07,22,03,56,12.30
2006,07,22,03,57,12.30
2006,07,22,03,58,12.30
2006,07,22,03,59,12.40
2006,07,22,04,00,12.40
2006,07,22,04,01,12.40
2006,07,22,04,02,12.40
2006,07,22,04,03,12.40
2006,07,22,04,04,12.40
2006,07,22,04,05,12.40
2006,07,22,04,06,12.40
2006,07,22,04,07,12.40
2006,07,22,04,08,12.40
2006,07,22,04,09,12.40
2006,07,22,04,10,12.40
2006,07,22,04,11,12.40
2006,07,22,04,12,12.40
2006,07,22,04,13,12.40
2006,07,22,04,14,12.40
2006,07,22,04,15,12.40
2006,07,22,04,16,12.40
2006,07,22,04,17,12.40
2006,07,22,04,18,12.40
2006,07,22,04,19,12.40
2006,07,22,04,20,12.40
2006,07,22,04,21,12.40
2006,07,22,04,22,12.40
2006,07,22,04,23,12.10
2006,07,22,04,24,12.10
2006,07,22,04,25,12.10
2006,07,22,04,26,12.10
2006,07,22,04,27,12.10
2006,07,22,04,28,12.10
2006,07,22,04,29,12.10
2006,07,22,04,30,12.10
2006,07,22,04,31,12.10
2006,07,22,04,32,12.10
2006,07,22,04,33,12.10
2006,07,22,04,34,12.20
2006,07,22,04,35,12.20
2006,07,22,04,36,12.20
2006,07,22,04,37,12.20
2006,07,22,04,38,12.20
2006,07,22,04,39,12.20
2006,07,22,04,40,12.20
2006,07,22,04,41,12.20
2006,07,22,04,42,12.20
2006,07,22,04,43,12.20
2006,07,22,04,44,12.20
2006,07,22,04,45,12.20
2006,07,22,04,46,12.20
2006,07,22,04,47,12.20
2006,07,22,04,48,12.20
2006,07,22,04,49,12.20
2006,07,22,04,50,12.10
2006,07,22,04,51,12.10
2006,07,22,04,52,12.10
2006,07,22,04,53,12.10
2006,07,22,04,54,12.10
2006,07,22,04,55,12.10
2006,07,22,04,56,12.10
2006,07,22,04,57,12.10
2006,07,22,04,58,12.10
2006,07,22,04,59,12.10
2006,07,22,05,00,12.10
2006,07,22,05,01,12.10
2006,07,22,05,02,12.10
2006,07,22,05,04,12.10
2006,07,22,05,05,12.10
2006,07,22,05,06,12.10
2006,07,22,05,07,12.10
2006,07,22,05,08,12.10
2006,07,22,05,09,12.10
2006,07,22,05,10,12.10
2006,07,22,05,11,12.10
2006,07,22,05,12,12.10
2006,07,22,05,13,12.10
2006,07,22,05,14,12.10
2006,07,22,05,15,12.10
2006,07,22,05,16,12.10
2006,07,22,05,17,12.10
2006,07,22,05,18,12.10
2006,07,22,05,19,12.10
2006,07,22,05,20,12.10
2006,07,22,05,22,12.10
2006,07,22,05,23,12.10
2006,07,22,05,24,12.10
2006,07,22,05,25,12.10
2006,07,22,05,26,11.90
2006,07,22,05,27,11.90
2006,07,22,05,28,11.90
2006,07,22,05,29,11.90
2006,07,22,05,30,11.90
2006,07,22,05,31,11.90
2006,07,22,05,32,11.90
2006,07,22,05,33,11.90
2006,07,22,05,35,11.90
2006,07,22,05,36,11.90
2006,07,22,05,37,11.90
2006,07,22,05,38,11.90
2006,07,22,05,39,11.90
2006,07,22,05,40,11.90
2006,07,22,05,41,11.90
2006,07,22,05,42,11.90
2006,07,22,05,43,11.90
2006,07,22,05,44,11.90
2006,07,22,05,45,11.90
2006,07,22,05,46,11.90
2006,07,22,05,47,11.90
2006,07,22,05,48,11.90
2006,07,22,05,49,11.90
2006,07,22,05,50,11.90
2006,07,22,05,52,11.90
2006,07,22,05,53,11.90
2006,07,22,05,54,11.90
2006,07,22,05,55,11.90
2006,07,22,05,56,11.90
2006,07,22,05,57,11.90
2006,07,22,05,58,11.90
2006,07,22,05,59,11.90
2006,07,22,06,00,11.90
2006,07,22,06,01,11.90
2006,07,22,06,02,11.90
2006,07,22,06,03,11.90
2006,07,22,06,04,11.90
2006,07,22,06,05,11.90
2006,07,22,06,06,11.90
2006,07,22,06,07,11.90
2006,07,22,06,08,11.90
2006,07,22,06,09,11.90
2006,07,22,06,10,11.90
2006,07,22,06,11,11.90
2006,07,22,06,12,11.90
2006,07,22,06,13,11.90
2006,07,22,06,14,11.70
2006,07,22,06,15,11.70
2006,07,22,06,16,11.70
2006,07,22,06,17,11.70
2006,07,22,06,18,11.70
2006,07,22,06,19,11.70
2006,07,22,06,20,11.70
2006,07,22,06,21,11.70
2006,07,22,06,22,11.70
2006,07,22,06,23,11.70
2006,07,22,06,24,11.70
2006,07,22,06,25,11.70
2006,07,22,06,26,11.90
2006,07,22,06,27,11.90
2006,07,22,06,28,11.90
2006,07,22,06,29,11.90
2006,07,22,06,30,11.90
2006,07,22,06,31,11.90
2006,07,22,06,32,11.90
2006,07,22,06,33,11.90
2006,07,22,06,34,11.90
2006,07,22,06,35,11.90
2006,07,22,06,36,11.90
2006,07,22,06,37,11.90
2006,07,22,06,38,11.80
2006,07,22,06,39,11.80
2006,07,22,06,40,11.80
2006,07,22,06,41,11.80
2006,07,22,06,42,11.80
2006,07,22,06,43,12.10
2006,07,22,06,44,12.10
2006,07,22,06,45,12.10
2006,07,22,06,47,12.10
2006,07,22,06,48,12.10
2006,07,22,06,49,12.10
2006,07,22,06,50,12.30
2006,07,22,06,51,12.30
2006,07,22,06,52,12.30
2006,07,22,06,53,12.30
2006,07,22,06,54,12.30
2006,07,22,06,55,12.30
2006,07,22,06,56,12.30
2006,07,22,06,57,12.30
2006,07,22,06,58,12.30
2006,07,22,06,59,12.30
2006,07,22,07,00,12.30
2006,07,22,07,02,12.40
2006,07,22,07,03,12.40
2006,07,22,07,04,12.40
2006,07,22,07,05,12.40
2006,07,22,07,06,12.40
2006,07,22,07,07,12.40
2006,07,22,07,08,12.40
2006,07,22,07,09,12.40
2006,07,22,07,10,12.40
2006,07,22,07,11,12.40
2006,07,22,07,12,12.40
2006,07,22,07,13,12.40
2006,07,22,07,14,12.30
2006,07,22,07,16,12.30
2006,07,22,07,17,12.30
2006,07,22,07,18,12.30
2006,07,22,07,19,12.30
2006,07,22,07,20,12.30
2006,07,22,07,21,12.30
2006,07,22,07,22,12.30
2006,07,22,07,23,12.30
2006,07,22,07,24,12.30
2006,07,22,07,25,12.30
2006,07,22,07,26,12.30
2006,07,22,07,27,12.30
2006,07,22,07,28,12.30
2006,07,22,07,29,12.30
2006,07,22,07,30,12.30
2006,07,22,07,31,12.30
2006,07,22,07,32,12.30
2006,07,22,07,33,12.30
2006,07,22,07,34,12.30
2006,07,22,07,35,12.30
2006,07,22,07,36,12.30
2006,07,22,07,37,12.30
2006,07,22,07,38,13.10
2006,07,22,07,39,13.10
2006,07,22,07,40,13.10
2006,07,22,07,41,13.10
2006,07,22,07,42,13.10
2006,07,22,07,43,13.10
2006,07,22,07,44,13.10
2006,07,22,07,45,13.10
2006,07,22,07,46,13.60
2006,07,22,07,47,13.60
2006,07,22,07,48,13.60
2006,07,22,07,49,13.60
2006,07,22,07,50,13.60
2006,07,22,07,51,13.60
2006,07,22,07,52,13.60
2006,07,22,07,53,13.60
2006,07,22,07,54,13.60
2006,07,22,07,55,13.60
2006,07,22,07,56,13.60
2006,07,22,07,57,13.60
2006,07,22,07,58,13.60
2006,07,22,07,59,13.60
2006,07,22,08,00,13.60
2006,07,22,08,01,13.60
2006,07,22,08,02,13.60
2006,07,22,08,03,12.90
2006,07,22,08,04,12.90
2006,07,22,08,05,12.90
2006,07,22,08,06,12.90
2006,07,22,08,07,12.90
2006,07,22,08,08,12.90
2006,07,22,08,09,12.90
2006,07,22,08,10,12.90
2006,07,22,08,11,12.90
2006,07,22,08,12,12.90
2006,07,22,08,13,12.90
2006,07,22,08,14,12.90
2006,07,22,08,15,12.40
2006,07,22,08,16,12.40
2006,07,22,08,17,12.40
2006,07,22,08,18,12.40
2006,07,22,08,19,12.40
2006,07,22,08,20,12.40
2006,07,22,08,21,12.40
2006,07,22,08,22,12.40
2006,07,22,08,23,12.40
2006,07,22,08,24,12.40
2006,07,22,08,25,12.40
2006,07,22,08,26,12.40
2006,07,22,08,27,12.60
2006,07,22,08,28,12.60
2006,07,22,08,29,12.60
2006,07,22,08,30,12.60
2006,07,22,08,32,12.60
2006,07,22,08,33,12.60
2006,07,22,08,34,12.60
2006,07,22,08,36,12.60
2006,07,22,08,37,12.60
2006,07,22,08,38,12.60
2006,07,22,08,39,13.20
2006,07,22,08,40,13.20
2006,07,22,08,41,13.20
2006,07,22,08,42,13.20
2006,07,22,08,43,13.20
2006,07,22,08,44,13.20
2006,07,22,08,45,13.20
2006,07,22,08,46,13.20
2006,07,22,08,47,13.20
2006,07,22,08,48,13.20
2006,07,22,08,49,13.70
2006,07,22,08,50,13.70
2006,07,22,08,52,13.70
2006,07,22,08,53,13.70
2006,07,22,08,54,13.70
2006,07,22,08,55,13.70
2006,07,22,08,56,13.70
2006,07,22,08,57,13.70
2006,07,22,08,58,13.70
2006,07,22,08,59,13.70
2006,07,22,09,00,13.70
2006,07,22,09,01,13.70
2006,07,22,09,02,13.70
2006,07,22,09,03,13.70
2006,07,22,09,04,13.70
2006,07,22,09,05,13.70
2006,07,22,09,06,13.70
2006,07,22,09,07,14.70
2006,07,22,09,09,14.70
2006,07,22,09,10,14.70
2006,07,22,09,12,14.70
2006,07,22,09,13,14.70
2006,07,22,09,14,14.70
2006,07,22,09,15,14.70
2006,07,22,09,16,14.70
2006,07,22,09,17,14.70
2006,07,22,09,18,14.00
2006,07,22,09,19,14.00
2006,07,22,09,20,14.00
2006,07,22,09,21,14.00
2006,07,22,09,22,14.00
2006,07,22,09,23,14.00
2006,07,22,09,24,14.00
2006,07,22,09,25,14.00
2006,07,22,09,26,14.00
2006,07,22,09,27,14.00
2006,07,22,09,28,14.00
2006,07,22,09,29,14.00
2006,07,22,09,30,12.90
2006,07,22,09,31,12.90
2006,07,22,09,32,12.90
2006,07,22,09,33,12.90
2006,07,22,09,34,12.90
2006,07,22,09,35,12.90
2006,07,22,09,36,12.90
2006,07,22,09,37,12.90
2006,07,22,09,38,12.90
2006,07,22,09,39,12.90
2006,07,22,09,40,12.90
2006,07,22,09,41,12.90
2006,07,22,09,42,12.60
2006,07,22,09,43,12.60
2006,07,22,09,44,12.60
2006,07,22,09,45,12.60
2006,07,22,09,46,12.60
2006,07,22,09,47,12.60
2006,07,22,09,48,12.60
2006,07,22,09,49,12.60
2006,07,22,09,50,12.60
2006,07,22,09,51,12.60
2006,07,22,09,52,12.90
2006,07,22,09,53,12.90
2006,07,22,09,54,12.90
2006,07,22,09,55,12.90
2006,07,22,09,56,12.90
2006,07,22,09,57,13.10
2006,07,22,09,58,13.10
2006,07,22,09,59,13.10
2006,07,22,10,00,13.10
2006,07,22,10,01,13.10
2006,07,22,10,02,13.10
2006,07,22,10,03,13.10
2006,07,22,10,04,13.10
2006,07,22,10,05,13.10
2006,07,22,10,06,13.10
2006,07,22,10,07,13.10
2006,07,22,10,08,13.10
2006,07,22,10,09,13.40
2006,07,22,10,10,13.40
2006,07,22,10,11,13.40
2006,07,22,10,12,13.40
2006,07,22,10,13,13.40
2006,07,22,10,14,13.40
2006,07,22,10,15,13.40
2006,07,22,10,16,13.40
2006,07,22,10,17,13.40
2006,07,22,10,18,13.40
2006,07,22,10,19,13.40
2006,07,22,10,20,13.40
2006,07,22,10,21,15.90
2006,07,22,10,22,15.90
2006,07,22,10,23,15.90
2006,07,22,10,24,15.90
2006,07,22,10,25,15.90
2006,07,22,10,26,15.90
2006,07,22,10,27,15.90
2006,07,22,10,28,15.90
2006,07,22,10,29,15.90
2006,07,22,10,30,15.90
2006,07,22,10,31,15.90
2006,07,22,10,32,15.90
2006,07,22,10,33,14.30
2006,07,22,10,34,14.30
2006,07,22,10,35,14.30
2006,07,22,10,36,14.30
2006,07,22,10,37,14.30
2006,07,22,10,38,14.30
2006,07,22,10,39,14.30
2006,07,22,10,40,14.30
2006,07,22,10,41,14.30
2006,07,22,10,42,14.30
2006,07,22,10,43,14.30
2006,07,22,10,44,14.30
2006,07,22,10,45,15.10
2006,07,22,10,46,15.10
2006,07,22,10,47,15.10
2006,07,22,10,48,15.10
2006,07,22,10,49,15.10
2006,07,22,10,50,15.10
2006,07,22,10,51,15.10
2006,07,22,10,52,15.10
2006,07,22,10,53,15.10
2006,07,22,10,54,15.10
2006,07,22,10,55,14.10
2006,07,22,10,56,14.10
2006,07,22,10,57,14.10
2006,07,22,10,58,14.10
2006,07,22,10,59,14.10
2006,07,22,11,00,14.30
2006,07,22,11,01,14.30
2006,07,22,11,02,14.30
2006,07,22,11,03,14.30
2006,07,22,11,04,14.30
2006,07,22,11,05,14.30
2006,07,22,11,06,14.30
2006,07,22,11,07,14.30
2006,07,22,11,08,14.30
2006,07,22,11,09,14.30
2006,07,22,11,10,14.30
2006,07,22,11,11,14.30
2006,07,22,11,12,13.60
2006,07,22,11,13,13.60
2006,07,22,11,14,13.60
2006,07,22,11,15,13.60
2006,07,22,11,16,13.60
2006,07,22,11,17,13.60
2006,07,22,11,18,13.60
2006,07,22,11,19,13.60
2006,07,22,11,20,13.60
2006,07,22,11,21,13.60
2006,07,22,11,22,13.60
2006,07,22,11,23,13.60
2006,07,22,11,24,13.20
2006,07,22,11,25,13.20
2006,07,22,11,26,13.20
2006,07,22,11,27,13.20
2006,07,22,11,28,13.20
2006,07,22,11,29,13.20
2006,07,22,11,30,13.20
2006,07,22,11,31,13.20
2006,07,22,11,32,13.20
2006,07,22,11,33,13.20
2006,07,22,11,34,13.20
2006,07,22,11,36,13.90
2006,07,22,11,37,13.90
2006,07,22,11,38,13.90
2006,07,22,11,39,13.90
2006,07,22,11,40,13.90
2006,07,22,11,41,13.90
2006,07,22,11,42,13.90
2006,07,22,11,43,13.90
2006,07,22,11,44,13.90
2006,07,22,11,45,13.90
2006,07,22,11,46,13.90
2006,07,22,11,47,13.90
2006,07,22,11,48,14.60
2006,07,22,11,49,14.60
2006,07,22,11,50,14.60
2006,07,22,11,51,14.60
2006,07,22,11,52,14.60
2006,07,22,11,53,14.60
2006,07,22,11,54,14.60
2006,07,22,11,55,14.60
2006,07,22,11,56,14.60
2006,07,22,11,57,14.60
2006,07,22,11,58,14.60
2006,07,22,11,59,14.60
2006,07,22,12,00,14.60
2006,07,22,12,01,14.60
2006,07,22,12,02,14.60
2006,07,22,12,03,14.90
2006,07,22,12,04,14.90
2006,07,22,12,05,14.90
2006,07,22,12,06,14.90
2006,07,22,12,07,14.90
2006,07,22,12,08,14.90
2006,07,22,12,09,14.90
2006,07,22,12,10,14.90
2006,07,22,12,11,14.90
2006,07,22,12,12,14.90
2006,07,22,12,14,14.90
2006,07,22,12,15,15.70
2006,07,22,12,16,15.70
2006,07,22,12,17,15.70
2006,07,22,12,18,15.70
2006,07,22,12,19,15.70
2006,07,22,12,20,15.70
2006,07,22,12,21,15.70
2006,07,22,12,22,15.70
2006,07,22,12,23,15.70
2006,07,22,12,24,15.70
2006,07,22,12,25,15.70
2006,07,22,12,26,15.70
2006,07,22,12,27,16.40
2006,07,22,12,28,16.40
2006,07,22,12,29,16.40
2006,07,22,12,30,16.40
2006,07,22,12,31,16.40
2006,07,22,12,32,16.40
2006,07,22,12,33,16.40
2006,07,22,12,34,16.40
2006,07,22,12,35,16.40
2006,07,22,12,36,16.40
2006,07,22,12,37,16.40
2006,07,22,12,38,16.40
2006,07,22,12,39,16.40
2006,07,22,12,40,16.40
2006,07,22,12,41,16.40
2006,07,22,12,42,16.40
2006,07,22,12,43,16.40
2006,07,22,12,44,16.40
2006,07,22,12,45,16.40
2006,07,22,12,46,16.40
2006,07,22,12,47,16.40
2006,07,22,12,48,16.40
2006,07,22,12,49,16.40
2006,07,22,12,50,16.40
2006,07,22,12,51,18.20
2006,07,22,12,52,18.20
2006,07,22,12,53,18.20
2006,07,22,12,54,18.20
2006,07,22,12,55,18.20
2006,07,22,12,56,18.20
2006,07,22,12,57,18.20
2006,07,22,12,58,18.20
2006,07,22,12,59,18.20
2006,07,22,13,00,18.20
2006,07,22,13,01,17.70
2006,07,22,13,02,17.70
2006,07,22,13,03,17.70
2006,07,22,13,04,17.70
2006,07,22,13,05,17.70
2006,07,22,13,06,17.70
2006,07,22,13,07,17.70
2006,07,22,13,08,17.70
2006,07,22,13,09,17.70
2006,07,22,13,10,17.70
2006,07,22,13,11,17.70
2006,07,22,13,12,17.70
2006,07,22,13,13,17.70
2006,07,22,13,14,17.70
2006,07,22,13,15,17.70
2006,07,22,13,16,17.70
2006,07,22,13,17,17.70
2006,07,22,13,18,16.90
2006,07,22,13,19,16.90
2006,07,22,13,20,16.90
2006,07,22,13,21,16.90
2006,07,22,13,22,16.90
2006,07,22,13,23,16.90
2006,07,22,13,24,16.90
2006,07,22,13,26,16.90
2006,07,22,13,27,16.90
2006,07,22,13,28,16.90
2006,07,22,13,29,16.90
2006,07,22,13,30,16.80
2006,07,22,13,31,16.80
2006,07,22,13,32,16.80
2006,07,22,13,33,16.80
2006,07,22,13,34,16.80
2006,07,22,13,35,16.80
2006,07,22,13,36,16.80
2006,07,22,13,37,16.80
2006,07,22,13,38,16.80
2006,07,22,13,40,16.80
2006,07,22,13,41,16.80
2006,07,22,13,42,16.90
2006,07,22,13,43,16.90
2006,07,22,13,44,16.90
2006,07,22,13,45,16.90
2006,07,22,13,47,16.90
2006,07,22,13,48,16.90
2006,07,22,13,49,16.90
2006,07,22,13,50,16.90
2006,07,22,13,51,16.90
2006,07,22,13,52,16.90
2006,07,22,13,53,16.90
2006,07,22,13,54,17.60
2006,07,22,13,55,17.60
2006,07,22,13,56,17.60
2006,07,22,13,57,17.60
2006,07,22,13,58,17.60
2006,07,22,13,59,17.60
2006,07,22,14,00,17.60
2006,07,22,14,01,17.60
2006,07,22,14,02,17.60
2006,07,22,14,03,17.60
2006,07,22,14,04,18.60
2006,07,22,14,05,18.60
2006,07,22,14,06,18.60
2006,07,22,14,07,18.60
2006,07,22,14,08,18.60
2006,07,22,14,09,18.40
2006,07,22,14,10,18.40
2006,07,22,14,11,18.40
2006,07,22,14,12,18.40
2006,07,22,14,13,18.40
2006,07,22,14,14,18.40
2006,07,22,14,15,18.40
2006,07,22,14,16,18.40
2006,07,22,14,17,18.40
2006,07,22,14,18,18.40
2006,07,22,14,19,18.40
2006,07,22,14,20,18.40
2006,07,22,14,21,19.10
2006,07,22,14,22,19.10
2006,07,22,14,23,19.10
2006,07,22,14,24,19.10
2006,07,22,14,25,19.10
2006,07,22,14,26,19.10
2006,07,22,14,27,19.10
2006,07,22,14,28,19.10
2006,07,22,14,29,19.10
2006,07,22,14,31,19.10
2006,07,22,14,32,19.10
2006,07,22,14,33,17.80
2006,07,22,14,34,17.80
2006,07,22,14,35,17.80
2006,07,22,14,36,17.80
2006,07,22,14,37,17.80
2006,07,22,14,38,17.80
2006,07,22,14,39,17.80
2006,07,22,14,40,17.80
2006,07,22,14,41,17.80
2006,07,22,14,42,17.80
2006,07,22,14,43,17.80
2006,07,22,14,44,17.80
2006,07,22,14,45,17.60
2006,07,22,14,46,17.60
2006,07,22,14,47,17.60
2006,07,22,14,48,17.60
2006,07,22,14,49,17.60
2006,07,22,14,50,17.60
2006,07,22,14,51,17.60
2006,07,22,14,52,17.60
2006,07,22,14,53,17.60
2006,07,22,14,54,17.60
2006,07,22,14,55,17.60
2006,07,22,14,56,17.60
2006,07,22,14,57,18.10
2006,07,22,14,58,18.10
2006,07,22,14,59,18.10
2006,07,22,15,00,18.10
2006,07,22,15,01,18.10
2006,07,22,15,02,18.10
2006,07,22,15,03,18.10
2006,07,22,15,04,18.10
2006,07,22,15,05,18.10
2006,07,22,15,06,18.10
2006,07,22,15,07,18.10
2006,07,22,15,08,18.60
2006,07,22,15,09,18.60
2006,07,22,15,10,18.60
2006,07,22,15,11,18.60
2006,07,22,15,12,19.00
2006,07,22,15,13,19.00
2006,07,22,15,14,19.00
2006,07,22,15,15,19.00
2006,07,22,15,16,19.00
2006,07,22,15,17,19.00
2006,07,22,15,18,19.00
2006,07,22,15,19,19.00
2006,07,22,15,20,19.00
2006,07,22,15,21,19.00
2006,07,22,15,22,19.00
2006,07,22,15,23,19.00
2006,07,22,15,24,19.00
2006,07,22,15,25,20.00
2006,07,22,15,26,20.00
2006,07,22,15,27,20.00
2006,07,22,15,28,20.00
2006,07,22,15,29,20.00
2006,07,22,15,30,20.00
2006,07,22,15,31,20.00
2006,07,22,15,32,20.00
2006,07,22,15,33,20.00
2006,07,22,15,34,20.00
2006,07,22,15,35,20.00
2006,07,22,15,36,20.00
2006,07,22,15,37,20.00
2006,07,22,15,38,21.30
2006,07,22,15,39,21.30
2006,07,22,15,40,21.30
2006,07,22,15,41,21.30
2006,07,22,15,42,21.30
2006,07,22,15,43,21.30
2006,07,22,15,44,21.30
2006,07,22,15,45,21.30
2006,07,22,15,46,21.30
2006,07,22,15,47,21.30
2006,07,22,15,48,21.30
2006,07,22,15,49,21.30
2006,07,22,15,50,22.60
2006,07,22,15,51,22.60
2006,07,22,15,53,22.60
2006,07,22,15,54,22.60
2006,07,22,15,55,22.60
2006,07,22,15,56,22.60
2006,07,22,15,57,22.60
2006,07,22,15,58,22.60
2006,07,22,15,59,22.60
2006,07,22,16,00,22.60
2006,07,22,16,01,22.60
2006,07,22,16,02,22.60
2006,07,22,16,03,22.40
2006,07,22,16,04,22.40
2006,07,22,16,05,22.40
2006,07,22,16,06,22.40
2006,07,22,16,07,22.40
2006,07,22,16,08,22.40
2006,07,22,16,09,22.40
2006,07,22,16,10,22.40
2006,07,22,16,11,22.20
2006,07,22,16,12,22.20
2006,07,22,16,13,22.20
2006,07,22,16,14,22.20
2006,07,22,16,15,22.20
2006,07,22,16,16,21.60
2006,07,22,16,17,21.60
2006,07,22,16,18,21.60
2006,07,22,16,19,21.60
2006,07,22,16,20,21.60
2006,07,22,16,21,21.60
2006,07,22,16,22,21.60
2006,07,22,16,23,21.60
2006,07,22,16,24,21.60
2006,07,22,16,25,21.60
2006,07,22,16,26,21.60
2006,07,22,16,27,21.60
2006,07,22,16,28,21.40
2006,07,22,16,29,21.40
2006,07,22,16,30,21.40
2006,07,22,16,31,21.40
2006,07,22,16,32,21.40
2006,07,22,16,33,21.40
2006,07,22,16,34,21.40
2006,07,22,16,35,21.40
2006,07,22,16,36,21.40
2006,07,22,16,37,21.40
2006,07,22,16,38,21.40
2006,07,22,16,39,21.40
2006,07,22,16,40,21.70
2006,07,22,16,41,21.70
2006,07,22,16,43,21.70
2006,07,22,16,44,21.70
2006,07,22,16,45,21.70
2006,07,22,16,46,21.70
2006,07,22,16,47,21.70
2006,07,22,16,48,21.70
2006,07,22,16,49,21.70
2006,07,22,16,51,21.70
2006,07,22,16,52,20.70
2006,07,22,16,53,20.70
2006,07,22,16,54,20.70
2006,07,22,16,55,20.70
2006,07,22,16,56,20.70
2006,07,22,16,57,20.70
2006,07,22,16,58,20.70
2006,07,22,16,59,20.70
2006,07,22,17,00,20.70
2006,07,22,17,01,20.70
2006,07,22,17,02,20.70
2006,07,22,17,03,20.70
2006,07,22,17,04,20.60
2006,07,22,17,05,20.60
2006,07,22,17,06,20.60
2006,07,22,17,07,20.60
2006,07,22,17,08,20.60
2006,07,22,17,09,20.60
2006,07,22,17,10,20.60
2006,07,22,17,11,20.60
2006,07,22,17,12,20.60
2006,07,22,17,13,20.60
2006,07,22,17,14,20.70
2006,07,22,17,15,20.70
2006,07,22,17,16,20.70
2006,07,22,17,17,20.70
2006,07,22,17,18,20.70
2006,07,22,17,19,20.80
2006,07,22,17,20,20.80
2006,07,22,17,22,20.80
2006,07,22,17,23,20.80
2006,07,22,17,24,20.80
2006,07,22,17,25,20.80
2006,07,22,17,26,20.80
2006,07,22,17,27,20.80
2006,07,22,17,28,20.80
2006,07,22,17,29,20.80
2006,07,22,17,30,20.80
2006,07,22,17,31,21.40
2006,07,22,17,32,21.40
2006,07,22,17,33,21.40
2006,07,22,17,34,21.40
2006,07,22,17,35,21.40
2006,07,22,17,36,21.40
2006,07,22,17,37,21.40
2006,07,22,17,38,21.40
2006,07,22,17,39,21.40
2006,07,22,17,40,21.40
2006,07,22,17,41,21.40
2006,07,22,17,42,21.40
2006,07,22,17,43,21.40
2006,07,22,17,44,21.40
2006,07,22,17,45,21.40
2006,07,22,17,46,21.40
2006,07,22,17,47,21.40
2006,07,22,17,48,21.40
2006,07,22,17,49,21.40
2006,07,22,17,50,21.40
2006,07,22,17,51,21.40
2006,07,22,17,52,21.40
2006,07,22,17,53,21.40
2006,07,22,17,54,21.40
2006,07,22,17,55,21.90
2006,07,22,17,56,21.90
2006,07,22,17,57,21.90